Torna al catalogo

STARLINK-5318

AttivoComunicazioniVLEO
NORAD 55304·PAYLOAD·🇺🇸 United States

Lanciato Jan 19, 2023 da Vandenberg Space Force Base

Loading…

Prossimi Passaggi (prossime 24 ore)

TLE

AggiornatoSource: CelesTrak SupGP

Epoca: Sep 14, 2026, 20:56 UTC

1 55304C 23010AM  26257.87270833  .00066486  00000+0  55734-2 0  2575
2 55304  69.9994 267.2624 0003542 266.1341  24.2968 14.98284451    19

Traccia STARLINK-5318 in tempo reale con AllMySat

Download on the App Store